contact:dominique.lefevre@mio.osupytheas.fr, maurice.libes@osupytheas.fr, didier.mallarino@osupytheas.fr
Project:EMSO http://www.emso-fr.org/EMSO-France
Depth: 2436.0 m
Title:EMSO Ligure Ouest : Data MII capteur MICROCAT
DateTime_Computer,Latitude,Longitude,Temperature,Conductivity,Pressure,DateTime_Instrument
DateTime_Computer,Latitude,Longitude,degC,S m-1,dbar,DateTime_Instrument
2024-05-06T00:02:46Z,42.805,6.029,13.3044,4.60132,2470.74,2024-5-06T02:05:28Z
2024-05-06T00:05:49Z,42.805,6.029,13.3041,4.60133,2470.73,2024-5-06T02:08:31Z
2024-05-06T00:08:52Z,42.805,6.029,13.3041,4.60133,2470.74,2024-5-06T02:11:34Z
2024-05-06T00:11:55Z,42.805,6.029,13.3043,4.60135,2470.8,2024-5-06T02:14:37Z
2024-05-06T00:14:58Z,42.805,6.029,13.3043,4.60132,2470.8,2024-5-06T02:17:40Z
2024-05-06T00:18:01Z,42.805,6.029,13.3041,4.60131,2470.787,2024-5-06T02:20:43Z
2024-05-06T00:21:04Z,42.805,6.029,13.3037,4.60130,2470.754,2024-5-06T02:23:46Z
2024-05-06T00:24:07Z,42.805,6.029,13.3041,4.60132,2470.763,2024-5-06T02:26:49Z
2024-05-06T00:27:10Z,42.805,6.029,13.3041,4.60132,2470.777,2024-5-06T02:29:52Z
2024-05-06T00:30:13Z,42.805,6.029,13.3040,4.60132,2470.777,2024-5-06T02:32:55Z
2024-05-06T00:33:17Z,42.805,6.029,13.3041,4.60131,2470.787,2024-5-06T02:35:58Z
2024-05-06T00:36:20Z,42.805,6.029,13.3043,4.60132,2470.8,2024-5-06T02:39:01Z
2024-05-06T00:39:23Z,42.805,6.029,13.3038,4.60132,2470.8,2024-5-06T02:42:05Z
2024-05-06T00:42:26Z,42.805,6.029,13.3043,4.60132,2470.763,2024-5-06T02:45:08Z
2024-05-06T00:45:29Z,42.805,6.029,13.3039,4.60132,2470.787,2024-5-06T02:48:11Z
2024-05-06T00:48:32Z,42.805,6.029,13.3041,4.60130,2470.787,2024-5-06T02:51:14Z
2024-05-06T00:51:35Z,42.805,6.029,13.3041,4.60132,2470.763,2024-5-06T02:54:17Z
2024-05-06T00:54:38Z,42.805,6.029,13.3039,4.60131,2470.763,2024-5-06T02:57:20Z
2024-05-06T00:57:41Z,42.805,6.029,13.3041,4.60132,2470.787,2024-5-06T03:00:23Z
2024-05-06T01:00:44Z,42.805,6.029,13.3043,4.60132,2470.787,2024-5-06T03:03:26Z
2024-05-06T01:03:47Z,42.805,6.029,13.3043,4.60131,2470.8,2024-5-06T03:06:29Z
2024-05-06T01:06:50Z,42.805,6.029,13.3042,4.60132,2470.763,2024-5-06T03:09:32Z
2024-05-06T01:09:53Z,42.805,6.029,13.3042,4.60131,2470.8,2024-5-06T03:12:35Z
2024-05-06T01:12:56Z,42.805,6.029,13.3040,4.60132,2470.81,2024-5-06T03:15:38Z
2024-05-06T01:16:00Z,42.805,6.029,13.3046,4.60132,2470.8,2024-5-06T03:18:41Z
2024-05-06T01:19:03Z,42.805,6.029,13.3043,4.60132,2470.787,2024-5-06T03:21:45Z
2024-05-06T01:22:06Z,42.805,6.029,13.3041,4.60131,2470.824,2024-5-06T03:24:48Z
2024-05-06T01:25:09Z,42.805,6.029,13.3044,4.60132,2470.787,2024-5-06T03:27:51Z
2024-05-06T01:28:12Z,42.805,6.029,13.3039,4.60131,2470.763,2024-5-06T03:30:54Z
2024-05-06T01:31:15Z,42.805,6.029,13.3041,4.60132,2470.787,2024-5-06T03:33:57Z
2024-05-06T01:34:18Z,42.805,6.029,13.3041,4.60132,2470.824,2024-5-06T03:37:00Z
2024-05-06T01:37:21Z,42.805,6.029,13.3041,4.60132,2470.787,2024-5-06T03:40:03Z
2024-05-06T01:40:24Z,42.805,6.029,13.3039,4.60132,2470.81,2024-5-06T03:43:06Z
2024-05-06T01:43:27Z,42.805,6.029,13.3039,4.60132,2470.787,2024-5-06T03:46:09Z
2024-05-06T01:46:30Z,42.805,6.029,13.3040,4.60133,2470.81,2024-5-06T03:49:12Z
2024-05-06T01:49:33Z,42.805,6.029,13.3046,4.60132,2470.81,2024-5-06T03:52:15Z
2024-05-06T01:52:36Z,42.805,6.029,13.3039,4.60133,2470.824,2024-5-06T03:55:18Z
2024-05-06T01:55:40Z,42.805,6.029,13.3042,4.60132,2470.824,2024-5-06T03:58:21Z
2024-05-06T01:58:43Z,42.805,6.029,13.3041,4.60133,2470.81,2024-5-06T04:01:25Z
2024-05-06T02:01:44Z,42.805,6.029,13.3043,4.60133,2470.847,2024-5-06T04:04:26Z
2024-05-06T02:04:47Z,42.805,6.029,13.3043,4.60133,2470.81,2024-5-06T04:07:29Z
2024-05-06T02:07:50Z,42.805,6.029,13.3041,4.60135,2470.833,2024-5-06T04:10:32Z
2024-05-06T02:10:53Z,42.805,6.029,13.3044,4.60133,2470.871,2024-5-06T04:13:35Z
2024-05-06T02:13:56Z,42.805,6.029,13.3046,4.60133,2470.81,2024-5-06T04:16:38Z
2024-05-06T02:16:59Z,42.805,6.029,13.3043,4.60132,2470.833,2024-5-06T04:19:41Z
2024-05-06T02:20:02Z,42.805,6.029,13.3046,4.60133,2470.857,2024-5-06T04:22:44Z
2024-05-06T02:23:06Z,42.805,6.029,13.3041,4.60133,2470.857,2024-5-06T04:25:47Z
2024-05-06T02:26:09Z,42.805,6.029,13.3041,4.60132,2470.857,2024-5-06T04:28:50Z
2024-05-06T02:29:12Z,42.805,6.029,13.3046,4.60132,2470.847,2024-5-06T04:31:54Z
2024-05-06T02:32:15Z,42.805,6.029,13.3042,4.60133,2470.88,2024-5-06T04:34:57Z
2024-05-06T02:35:18Z,42.805,6.029,13.3045,4.60132,2470.894,2024-5-06T04:38:00Z
2024-05-06T02:38:21Z,42.805,6.029,13.3042,4.60132,2470.857,2024-5-06T04:41:03Z
2024-05-06T02:41:24Z,42.805,6.029,13.3043,4.60133,2470.857,2024-5-06T04:44:06Z
2024-05-06T02:44:27Z,42.805,6.029,13.3041,4.60134,2470.857,2024-5-06T04:47:09Z
2024-05-06T02:47:30Z,42.805,6.029,13.3044,4.60133,2470.857,2024-5-06T04:50:12Z
2024-05-06T02:50:33Z,42.805,6.029,13.3039,4.60132,2470.894,2024-5-06T04:53:15Z
2024-05-06T02:53:36Z,42.805,6.029,13.3042,4.60131,2470.88,2024-5-06T04:56:18Z
2024-05-06T02:56:39Z,42.805,6.029,13.3046,4.60133,2470.871,2024-5-06T04:59:21Z
2024-05-06T02:59:42Z,42.805,6.029,13.3043,4.60134,2470.917,2024-5-06T05:02:24Z
2024-05-06T03:02:46Z,42.805,6.029,13.3046,4.60133,2470.88,2024-5-06T05:05:27Z
2024-05-06T03:05:49Z,42.805,6.029,13.3043,4.60133,2470.904,2024-5-06T05:08:30Z
2024-05-06T03:08:52Z,42.805,6.029,13.3042,4.60133,2470.927,2024-5-06T05:11:34Z
2024-05-06T03:11:55Z,42.805,6.029,13.3042,4.60133,2470.88,2024-5-06T05:14:37Z
2024-05-06T03:14:58Z,42.805,6.029,13.3043,4.60134,2470.88,2024-5-06T05:17:40Z
2024-05-06T03:18:01Z,42.805,6.029,13.3041,4.60133,2470.904,2024-5-06T05:20:43Z
2024-05-06T03:21:04Z,42.805,6.029,13.3040,4.60132,2470.88,2024-5-06T05:23:46Z
2024-05-06T03:24:07Z,42.805,6.029,13.3042,4.60132,2470.927,2024-5-06T05:26:49Z
2024-05-06T03:27:10Z,42.805,6.029,13.3039,4.60133,2470.904,2024-5-06T05:29:52Z
2024-05-06T03:30:13Z,42.805,6.029,13.3044,4.60132,2470.88,2024-5-06T05:32:55Z
2024-05-06T03:33:16Z,42.805,6.029,13.3045,4.60132,2470.94,2024-5-06T05:35:58Z
2024-05-06T03:36:19Z,42.805,6.029,13.3041,4.60133,2470.904,2024-5-06T05:39:01Z
2024-05-06T03:39:22Z,42.805,6.029,13.3043,4.60134,2470.927,2024-5-06T05:42:04Z
2024-05-06T03:42:26Z,42.805,6.029,13.3041,4.60133,2470.904,2024-5-06T05:45:07Z
2024-05-06T03:45:29Z,42.805,6.029,13.3041,4.60132,2470.904,2024-5-06T05:48:10Z
2024-05-06T03:48:32Z,42.805,6.029,13.3041,4.60134,2470.927,2024-5-06T05:51:14Z
2024-05-06T03:51:35Z,42.805,6.029,13.3044,4.60133,2470.95,2024-5-06T05:54:17Z
2024-05-06T03:54:38Z,42.805,6.029,13.3041,4.60135,2470.913,2024-5-06T05:57:20Z
2024-05-06T03:57:41Z,42.805,6.029,13.3041,4.60133,2470.94,2024-5-06T06:00:23Z
2024-05-06T04:00:44Z,42.805,6.029,13.3042,4.60133,2470.927,2024-5-06T06:03:26Z
2024-05-06T04:03:47Z,42.805,6.029,13.3043,4.60133,2470.94,2024-5-06T06:06:29Z
2024-05-06T04:06:50Z,42.805,6.029,13.3045,4.60132,2470.917,2024-5-06T06:09:32Z
2024-05-06T04:09:53Z,42.805,6.029,13.3039,4.60132,2470.95,2024-5-06T06:12:35Z
2024-05-06T04:12:56Z,42.805,6.029,13.3043,4.60132,2470.95,2024-5-06T06:15:38Z
2024-05-06T04:15:59Z,42.805,6.029,13.3042,4.60132,2470.964,2024-5-06T06:18:41Z
2024-05-06T04:19:02Z,42.805,6.029,13.3043,4.60133,2470.927,2024-5-06T06:21:44Z
2024-05-06T04:22:05Z,42.805,6.029,13.3046,4.60132,2470.973,2024-5-06T06:24:47Z
2024-05-06T04:25:09Z,42.805,6.029,13.3041,4.60133,2470.964,2024-5-06T06:27:50Z
2024-05-06T04:28:12Z,42.805,6.029,13.3041,4.60132,2470.95,2024-5-06T06:30:54Z
2024-05-06T04:31:15Z,42.805,6.029,13.3041,4.60133,2470.95,2024-5-06T06:33:57Z
2024-05-06T04:34:18Z,42.805,6.029,13.3042,4.60135,2470.95,2024-5-06T06:37:00Z
2024-05-06T04:37:21Z,42.805,6.029,13.3042,4.60132,2470.964,2024-5-06T06:40:03Z
2024-05-06T04:40:24Z,42.805,6.029,13.3043,4.60135,2470.964,2024-5-06T06:43:06Z
2024-05-06T04:43:27Z,42.805,6.029,13.3043,4.60137,2470.997,2024-5-06T06:46:09Z
2024-05-06T04:46:30Z,42.805,6.029,13.3042,4.60135,2470.95,2024-5-06T06:49:12Z
2024-05-06T04:49:33Z,42.805,6.029,13.3039,4.60134,2471.01,2024-5-06T06:52:15Z
2024-05-06T04:52:36Z,42.805,6.029,13.3040,4.60134,2470.987,2024-5-06T06:55:18Z
2024-05-06T04:55:39Z,42.805,6.029,13.3047,4.60135,2470.987,2024-5-06T06:58:21Z
2024-05-06T04:58:42Z,42.805,6.029,13.3041,4.60132,2470.997,2024-5-06T07:01:24Z
2024-05-06T05:01:46Z,42.805,6.029,13.3043,4.60132,2470.964,2024-5-06T07:04:27Z
2024-05-06T05:04:49Z,42.805,6.029,13.3043,4.60134,2470.973,2024-5-06T07:07:30Z
2024-05-06T05:07:52Z,42.805,6.029,13.3042,4.60134,2470.987,2024-5-06T07:10:34Z
2024-05-06T05:10:55Z,42.805,6.029,13.3042,4.60132,2470.987,2024-5-06T07:13:37Z
2024-05-06T05:13:58Z,42.805,6.029,13.3042,4.60132,2470.973,2024-5-06T07:16:40Z
2024-05-06T05:17:01Z,42.805,6.029,13.3042,4.60134,2470.997,2024-5-06T07:19:43Z
2024-05-06T05:20:04Z,42.805,6.029,13.3043,4.60132,2470.95,2024-5-06T07:22:46Z
2024-05-06T05:23:07Z,42.805,6.029,13.3047,4.60133,2470.973,2024-5-06T07:25:49Z
2024-05-06T05:26:10Z,42.805,6.029,13.3041,4.60135,2470.997,2024-5-06T07:28:52Z
2024-05-06T05:29:13Z,42.805,6.029,13.3042,4.60132,2470.997,2024-5-06T07:31:55Z
2024-05-06T05:32:16Z,42.805,6.029,13.3045,4.60133,2471.057,2024-5-06T07:34:58Z
2024-05-06T05:35:19Z,42.805,6.029,13.3042,4.60135,2470.973,2024-5-06T07:38:01Z
2024-05-06T05:38:22Z,42.805,6.029,13.3040,4.60132,2471.01,2024-5-06T07:41:04Z
2024-05-06T05:41:25Z,42.805,6.029,13.3040,4.60132,2470.987,2024-5-06T07:44:07Z
2024-05-06T05:44:29Z,42.805,6.029,13.3046,4.60132,2470.997,2024-5-06T07:47:10Z
2024-05-06T05:47:32Z,42.805,6.029,13.3044,4.60132,2470.973,2024-5-06T07:50:14Z
2024-05-06T05:50:35Z,42.805,6.029,13.3043,4.60132,2470.997,2024-5-06T07:53:17Z
2024-05-06T05:53:38Z,42.805,6.029,13.3041,4.60132,2471.01,2024-5-06T07:56:20Z
2024-05-06T05:56:41Z,42.805,6.029,13.3043,4.60132,2470.973,2024-5-06T07:59:23Z
2024-05-06T05:59:44Z,42.805,6.029,13.3043,4.60135,2470.973,2024-5-06T08:02:26Z
2024-05-06T06:02:46Z,42.805,6.029,13.3044,4.60132,2470.987,2024-5-06T08:05:28Z
2024-05-06T06:05:49Z,42.805,6.029,13.3041,4.60134,2471.01,2024-5-06T08:08:31Z
2024-05-06T06:08:52Z,42.805,6.029,13.3039,4.60132,2470.987,2024-5-06T08:11:34Z
2024-05-06T06:11:55Z,42.805,6.029,13.3042,4.60133,2471.02,2024-5-06T08:14:37Z
2024-05-06T06:14:58Z,42.805,6.029,13.3043,4.60132,2470.973,2024-5-06T08:17:40Z
2024-05-06T06:18:01Z,42.805,6.029,13.3045,4.60132,2470.95,2024-5-06T08:20:43Z
2024-05-06T06:21:04Z,42.805,6.029,13.3045,4.60132,2470.973,2024-5-06T08:23:46Z
2024-05-06T06:24:07Z,42.805,6.029,13.3043,4.60132,2470.987,2024-5-06T08:26:49Z
2024-05-06T06:27:10Z,42.805,6.029,13.3044,4.60132,2470.997,2024-5-06T08:29:52Z
2024-05-06T06:30:14Z,42.805,6.029,13.3040,4.60132,2470.997,2024-5-06T08:32:55Z
2024-05-06T06:33:17Z,42.805,6.029,13.3043,4.60132,2471.02,2024-5-06T08:35:59Z
2024-05-06T06:36:20Z,42.805,6.029,13.3039,4.60132,2470.997,2024-5-06T08:39:02Z
2024-05-06T06:39:23Z,42.805,6.029,13.3043,4.60135,2470.987,2024-5-06T08:42:05Z
2024-05-06T06:42:26Z,42.805,6.029,13.3039,4.60134,2470.973,2024-5-06T08:45:08Z
2024-05-06T06:45:29Z,42.805,6.029,13.3043,4.60132,2470.973,2024-5-06T08:48:11Z
2024-05-06T06:48:32Z,42.805,6.029,13.3046,4.60133,2470.95,2024-5-06T08:51:14Z
2024-05-06T06:51:35Z,42.805,6.029,13.3041,4.60132,2470.987,2024-5-06T08:54:17Z
2024-05-06T06:54:38Z,42.805,6.029,13.3040,4.60134,2470.973,2024-5-06T08:57:20Z
2024-05-06T06:57:41Z,42.805,6.029,13.3043,4.60132,2470.987,2024-5-06T09:00:23Z
2024-05-06T07:00:44Z,42.805,6.029,13.3041,4.60132,2470.973,2024-5-06T09:03:26Z
2024-05-06T07:03:47Z,42.805,6.029,13.3043,4.60135,2470.964,2024-5-06T09:06:29Z
2024-05-06T07:06:50Z,42.805,6.029,13.3040,4.60132,2470.95,2024-5-06T09:09:32Z
2024-05-06T07:09:53Z,42.805,6.029,13.3044,4.60132,2470.964,2024-5-06T09:12:35Z
2024-05-06T07:12:57Z,42.805,6.029,13.3040,4.60132,2470.964,2024-5-06T09:15:38Z
2024-05-06T07:16:00Z,42.805,6.029,13.3041,4.60132,2470.936,2024-5-06T09:18:42Z
2024-05-06T07:19:03Z,42.805,6.029,13.3040,4.60132,2470.95,2024-5-06T09:21:45Z
2024-05-06T07:22:06Z,42.805,6.029,13.3043,4.60132,2470.95,2024-5-06T09:24:48Z
2024-05-06T07:25:09Z,42.805,6.029,13.3042,4.60133,2470.94,2024-5-06T09:27:51Z
2024-05-06T07:28:12Z,42.805,6.029,13.3039,4.60133,2470.927,2024-5-06T09:30:54Z
2024-05-06T07:31:15Z,42.805,6.029,13.3042,4.60133,2470.94,2024-5-06T09:33:57Z
2024-05-06T07:34:18Z,42.805,6.029,13.3043,4.60133,2470.964,2024-5-06T09:37:00Z
2024-05-06T07:37:21Z,42.805,6.029,13.3043,4.60132,2470.964,2024-5-06T09:40:03Z
2024-05-06T07:40:24Z,42.805,6.029,13.3043,4.60132,2470.927,2024-5-06T09:43:06Z
2024-05-06T07:43:27Z,42.805,6.029,13.3039,4.60132,2470.95,2024-5-06T09:46:09Z
2024-05-06T07:46:30Z,42.805,6.029,13.3039,4.60132,2470.964,2024-5-06T09:49:12Z
2024-05-06T07:49:33Z,42.805,6.029,13.3039,4.60134,2470.927,2024-5-06T09:52:15Z
2024-05-06T07:52:37Z,42.805,6.029,13.3041,4.60133,2470.917,2024-5-06T09:55:18Z
2024-05-06T07:55:40Z,42.805,6.029,13.3044,4.60132,2470.95,2024-5-06T09:58:22Z
2024-05-06T07:58:43Z,42.805,6.029,13.3042,4.60134,2470.936,2024-5-06T10:01:25Z
2024-05-06T08:01:45Z,42.805,6.029,13.3043,4.60132,2470.95,2024-5-06T10:04:27Z
2024-05-06T08:04:48Z,42.805,6.029,13.3042,4.60132,2470.95,2024-5-06T10:07:30Z
2024-05-06T08:07:52Z,42.805,6.029,13.3039,4.60135,2470.94,2024-5-06T10:10:33Z
2024-05-06T08:10:55Z,42.805,6.029,13.3042,4.60135,2470.927,2024-5-06T10:13:37Z
2024-05-06T08:13:58Z,42.805,6.029,13.3039,4.60132,2470.94,2024-5-06T10:16:40Z
2024-05-06T08:17:01Z,42.805,6.029,13.3044,4.60132,2470.927,2024-5-06T10:19:43Z
2024-05-06T08:20:04Z,42.805,6.029,13.3045,4.60133,2470.917,2024-5-06T10:22:46Z
2024-05-06T08:23:07Z,42.805,6.029,13.3044,4.60130,2470.904,2024-5-06T10:25:49Z
2024-05-06T08:26:10Z,42.805,6.029,13.3041,4.60132,2470.88,2024-5-06T10:28:52Z
2024-05-06T08:29:13Z,42.805,6.029,13.3038,4.60135,2470.927,2024-5-06T10:31:55Z
2024-05-06T08:32:16Z,42.805,6.029,13.3043,4.60131,2470.917,2024-5-06T10:34:58Z
2024-05-06T08:35:19Z,42.805,6.029,13.3040,4.60135,2470.917,2024-5-06T10:38:01Z
2024-05-06T08:38:22Z,42.805,6.029,13.3042,4.60132,2470.904,2024-5-06T10:41:04Z
2024-05-06T08:41:25Z,42.805,6.029,13.3043,4.60132,2470.904,2024-5-06T10:44:07Z
2024-05-06T08:44:29Z,42.805,6.029,13.3042,4.60132,2470.88,2024-5-06T10:47:10Z
2024-05-06T08:47:32Z,42.805,6.029,13.3042,4.60132,2470.917,2024-5-06T10:50:13Z
2024-05-06T08:50:35Z,42.805,6.029,13.3043,4.60131,2470.894,2024-5-06T10:53:17Z
2024-05-06T08:53:38Z,42.805,6.029,13.3041,4.60130,2470.857,2024-5-06T10:56:20Z
2024-05-06T08:56:41Z,42.805,6.029,13.3044,4.60132,2470.833,2024-5-06T10:59:23Z
2024-05-06T08:59:44Z,42.805,6.029,13.3041,4.60133,2470.857,2024-5-06T11:02:26Z
2024-05-06T09:02:47Z,42.805,6.029,13.3042,4.60132,2470.857,2024-5-06T11:05:29Z
2024-05-06T09:05:50Z,42.805,6.029,13.3041,4.60132,2470.833,2024-5-06T11:08:32Z
2024-05-06T09:08:53Z,42.805,6.029,13.3040,4.60133,2470.894,2024-5-06T11:11:35Z
2024-05-06T09:11:56Z,42.805,6.029,13.3040,4.60132,2470.833,2024-5-06T11:14:38Z
2024-05-06T09:14:59Z,42.805,6.029,13.3039,4.60131,2470.88,2024-5-06T11:17:41Z
2024-05-06T09:18:02Z,42.805,6.029,13.3038,4.60130,2470.871,2024-5-06T11:20:44Z
2024-05-06T09:21:05Z,42.805,6.029,13.3041,4.60131,2470.857,2024-5-06T11:23:47Z
2024-05-06T09:24:09Z,42.805,6.029,13.3043,4.60132,2470.857,2024-5-06T11:26:50Z
2024-05-06T09:27:12Z,42.805,6.029,13.3041,4.60132,2470.857,2024-5-06T11:29:54Z
2024-05-06T09:30:15Z,42.805,6.029,13.3043,4.60132,2470.88,2024-5-06T11:32:57Z
2024-05-06T09:33:18Z,42.805,6.029,13.3043,4.60131,2470.871,2024-5-06T11:36:00Z
2024-05-06T09:36:21Z,42.805,6.029,13.3045,4.60132,2470.857,2024-5-06T11:39:03Z
2024-05-06T09:39:24Z,42.805,6.029,13.3043,4.60132,2470.833,2024-5-06T11:42:06Z
2024-05-06T09:42:27Z,42.805,6.029,13.3043,4.60133,2470.824,2024-5-06T11:45:09Z
2024-05-06T09:45:30Z,42.805,6.029,13.3041,4.60132,2470.857,2024-5-06T11:48:12Z
2024-05-06T09:48:33Z,42.805,6.029,13.3041,4.60131,2470.833,2024-5-06T11:51:15Z
2024-05-06T09:51:36Z,42.805,6.029,13.3037,4.60130,2470.871,2024-5-06T11:54:18Z
2024-05-06T09:54:39Z,42.805,6.029,13.3039,4.60129,2470.81,2024-5-06T11:57:21Z
2024-05-06T09:57:42Z,42.805,6.029,13.3041,4.60130,2470.81,2024-5-06T12:00:24Z
2024-05-06T10:00:46Z,42.805,6.029,13.3043,4.60131,2470.81,2024-5-06T12:03:27Z
2024-05-06T10:03:49Z,42.805,6.029,13.3041,4.60132,2470.81,2024-5-06T12:06:31Z
2024-05-06T10:06:52Z,42.805,6.029,13.3042,4.60130,2470.763,2024-5-06T12:09:34Z
2024-05-06T10:09:55Z,42.805,6.029,13.3046,4.60132,2470.763,2024-5-06T12:12:37Z
2024-05-06T10:12:58Z,42.805,6.029,13.3040,4.60130,2470.787,2024-5-06T12:15:40Z
2024-05-06T10:16:01Z,42.805,6.029,13.3038,4.60132,2470.787,2024-5-06T12:18:43Z
2024-05-06T10:19:04Z,42.805,6.029,13.3037,4.60131,2470.81,2024-5-06T12:21:46Z
2024-05-06T10:22:07Z,42.805,6.029,13.3039,4.60130,2470.824,2024-5-06T12:24:49Z
2024-05-06T10:25:10Z,42.805,6.029,13.3040,4.60131,2470.81,2024-5-06T12:27:52Z
2024-05-06T10:28:13Z,42.805,6.029,13.3042,4.60130,2470.8,2024-5-06T12:30:55Z
2024-05-06T10:31:16Z,42.805,6.029,13.3040,4.60132,2470.763,2024-5-06T12:33:58Z
2024-05-06T10:34:19Z,42.805,6.029,13.3039,4.60131,2470.787,2024-5-06T12:37:01Z
2024-05-06T10:37:23Z,42.805,6.029,13.3039,4.60130,2470.787,2024-5-06T12:40:04Z
2024-05-06T10:40:26Z,42.805,6.029,13.3046,4.60132,2470.81,2024-5-06T12:43:08Z
2024-05-06T10:43:29Z,42.805,6.029,13.3042,4.60130,2470.763,2024-5-06T12:46:11Z
2024-05-06T10:46:32Z,42.805,6.029,13.3038,4.60131,2470.8,2024-5-06T12:49:14Z
2024-05-06T10:49:35Z,42.805,6.029,13.3041,4.60132,2470.763,2024-5-06T12:52:17Z
2024-05-06T10:52:38Z,42.805,6.029,13.3040,4.60132,2470.74,2024-5-06T12:55:20Z
2024-05-06T10:55:41Z,42.805,6.029,13.3041,4.60132,2470.763,2024-5-06T12:58:23Z
2024-05-06T10:58:44Z,42.805,6.029,13.3039,4.60131,2470.763,2024-5-06T13:01:26Z
2024-05-06T11:01:47Z,42.805,6.029,13.3042,4.60129,2470.787,2024-5-06T13:04:29Z
2024-05-06T11:04:50Z,42.805,6.029,13.3043,4.60131,2470.763,2024-5-06T13:07:32Z
2024-05-06T11:07:53Z,42.805,6.029,13.3041,4.60131,2470.763,2024-5-06T13:10:35Z
2024-05-06T11:10:56Z,42.805,6.029,13.3041,4.60130,2470.8,2024-5-06T13:13:38Z
2024-05-06T11:13:59Z,42.805,6.029,13.3042,4.60130,2470.8,2024-5-06T13:16:41Z
2024-05-06T11:17:03Z,42.805,6.029,13.3042,4.60130,2470.763,2024-5-06T13:19:44Z
2024-05-06T11:20:06Z,42.805,6.029,13.3045,4.60129,2470.754,2024-5-06T13:22:48Z
2024-05-06T11:23:09Z,42.805,6.029,13.3041,4.60131,2470.74,2024-5-06T13:25:51Z
2024-05-06T11:26:12Z,42.805,6.029,13.3042,4.60131,2470.74,2024-5-06T13:28:54Z
2024-05-06T11:29:15Z,42.805,6.029,13.3042,4.60129,2470.777,2024-5-06T13:31:57Z
2024-05-06T11:32:18Z,42.805,6.029,13.3041,4.60130,2470.754,2024-5-06T13:35:00Z
2024-05-06T11:35:21Z,42.805,6.029,13.3041,4.60130,2470.74,2024-5-06T13:38:03Z
2024-05-06T11:38:24Z,42.805,6.029,13.3044,4.60129,2470.74,2024-5-06T13:41:06Z
2024-05-06T11:41:27Z,42.805,6.029,13.3041,4.60130,2470.74,2024-5-06T13:44:09Z
2024-05-06T11:44:30Z,42.805,6.029,13.3041,4.60131,2470.763,2024-5-06T13:47:12Z
2024-05-06T11:47:33Z,42.805,6.029,13.3039,4.60130,2470.787,2024-5-06T13:50:15Z
2024-05-06T11:50:36Z,42.805,6.029,13.3040,4.60129,2470.74,2024-5-06T13:53:18Z
2024-05-06T11:53:40Z,42.805,6.029,13.3040,4.60130,2470.717,2024-5-06T13:56:21Z
2024-05-06T11:56:43Z,42.805,6.029,13.3041,4.60131,2470.707,2024-5-06T13:59:25Z
2024-05-06T11:59:46Z,42.805,6.029,13.3043,4.60132,2470.717,2024-5-06T14:02:28Z
2024-05-06T12:02:47Z,42.805,6.029,13.3039,4.60131,2470.717,2024-5-06T14:05:29Z
2024-05-06T12:05:50Z,42.805,6.029,13.3041,4.60130,2470.717,2024-5-06T14:08:32Z
2024-05-06T12:08:53Z,42.805,6.029,13.3039,4.60131,2470.74,2024-5-06T14:11:35Z
2024-05-06T12:11:56Z,42.805,6.029,13.3043,4.60130,2470.754,2024-5-06T14:14:38Z
2024-05-06T12:14:59Z,42.805,6.029,13.3038,4.60129,2470.74,2024-5-06T14:17:41Z
2024-05-06T12:18:02Z,42.805,6.029,13.3040,4.60131,2470.703,2024-5-06T14:20:44Z
2024-05-06T12:21:05Z,42.805,6.029,13.3040,4.60130,2470.74,2024-5-06T14:23:47Z
2024-05-06T12:24:08Z,42.805,6.029,13.3045,4.60129,2470.74,2024-5-06T14:26:50Z
2024-05-06T12:27:11Z,42.805,6.029,13.3045,4.60128,2470.754,2024-5-06T14:29:53Z
2024-05-06T12:30:15Z,42.805,6.029,13.3039,4.60129,2470.703,2024-5-06T14:32:56Z
2024-05-06T12:33:18Z,42.805,6.029,13.3039,4.60129,2470.717,2024-5-06T14:36:00Z
2024-05-06T12:36:21Z,42.805,6.029,13.3038,4.60129,2470.763,2024-5-06T14:39:03Z
2024-05-06T12:39:24Z,42.805,6.029,13.3042,4.60129,2470.693,2024-5-06T14:42:06Z
2024-05-06T12:42:27Z,42.805,6.029,13.3037,4.60129,2470.73,2024-5-06T14:45:09Z
2024-05-06T12:45:30Z,42.805,6.029,13.3041,4.60129,2470.74,2024-5-06T14:48:12Z
2024-05-06T12:48:33Z,42.805,6.029,13.3040,4.60129,2470.74,2024-5-06T14:51:15Z
2024-05-06T12:51:36Z,42.805,6.029,13.3039,4.60131,2470.717,2024-5-06T14:54:18Z
2024-05-06T12:54:39Z,42.805,6.029,13.3038,4.60132,2470.717,2024-5-06T14:57:21Z
2024-05-06T12:57:42Z,42.805,6.029,13.3039,4.60131,2470.707,2024-5-06T15:00:24Z
2024-05-06T13:00:45Z,42.805,6.029,13.3039,4.60129,2470.754,2024-5-06T15:03:27Z
2024-05-06T13:03:48Z,42.805,6.029,13.3039,4.60129,2470.763,2024-5-06T15:06:30Z
2024-05-06T13:06:52Z,42.805,6.029,13.3043,4.60128,2470.717,2024-5-06T15:09:33Z
2024-05-06T13:09:55Z,42.805,6.029,13.3039,4.60131,2470.717,2024-5-06T15:12:37Z
2024-05-06T13:12:58Z,42.805,6.029,13.3037,4.60132,2470.74,2024-5-06T15:15:40Z
2024-05-06T13:16:01Z,42.805,6.029,13.3041,4.60131,2470.74,2024-5-06T15:18:43Z
2024-05-06T13:19:04Z,42.805,6.029,13.3041,4.60130,2470.763,2024-5-06T15:21:46Z
2024-05-06T13:22:07Z,42.805,6.029,13.3036,4.60131,2470.74,2024-5-06T15:24:49Z
2024-05-06T13:25:10Z,42.805,6.029,13.3041,4.60131,2470.717,2024-5-06T15:27:52Z
2024-05-06T13:28:13Z,42.805,6.029,13.3039,4.60130,2470.74,2024-5-06T15:30:55Z
2024-05-06T13:31:16Z,42.805,6.029,13.3041,4.60131,2470.717,2024-5-06T15:33:58Z
2024-05-06T13:34:19Z,42.805,6.029,13.3041,4.60128,2470.74,2024-5-06T15:37:01Z
2024-05-06T13:37:22Z,42.805,6.029,13.3042,4.60129,2470.74,2024-5-06T15:40:04Z
2024-05-06T13:40:25Z,42.805,6.029,13.3041,4.60129,2470.74,2024-5-06T15:43:07Z
2024-05-06T13:43:29Z,42.805,6.029,13.3038,4.60132,2470.763,2024-5-06T15:46:10Z
2024-05-06T13:46:32Z,42.805,6.029,13.3039,4.60129,2470.726,2024-5-06T15:49:14Z
2024-05-06T13:49:35Z,42.805,6.029,13.3042,4.60129,2470.74,2024-5-06T15:52:17Z
2024-05-06T13:52:38Z,42.805,6.029,13.3040,4.60130,2470.74,2024-5-06T15:55:20Z
2024-05-06T13:55:41Z,42.805,6.029,13.3046,4.60132,2470.787,2024-5-06T15:58:23Z
2024-05-06T13:58:44Z,42.805,6.029,13.3039,4.60131,2470.74,2024-5-06T16:01:26Z
2024-05-06T14:01:47Z,42.805,6.029,13.3039,4.60132,2470.763,2024-5-06T16:04:29Z
2024-05-06T14:04:50Z,42.805,6.029,13.3041,4.60130,2470.74,2024-5-06T16:07:32Z
2024-05-06T14:07:54Z,42.805,6.029,13.3041,4.60129,2470.763,2024-5-06T16:10:35Z
2024-05-06T14:10:57Z,42.805,6.029,13.3037,4.60129,2470.777,2024-5-06T16:13:39Z
2024-05-06T14:14:00Z,42.805,6.029,13.3039,4.60131,2470.717,2024-5-06T16:16:42Z
2024-05-06T14:17:03Z,42.805,6.029,13.3043,4.60131,2470.74,2024-5-06T16:19:45Z
2024-05-06T14:20:06Z,42.805,6.029,13.3039,4.60131,2470.763,2024-5-06T16:22:48Z
2024-05-06T14:23:09Z,42.805,6.029,13.3039,4.60131,2470.777,2024-5-06T16:25:51Z
2024-05-06T14:26:12Z,42.805,6.029,13.3039,4.60132,2470.8,2024-5-06T16:28:54Z
2024-05-06T14:29:15Z,42.805,6.029,13.3043,4.60132,2470.787,2024-5-06T16:31:57Z
2024-05-06T14:32:18Z,42.805,6.029,13.3039,4.60132,2470.787,2024-5-06T16:35:00Z
2024-05-06T14:35:21Z,42.805,6.029,13.3038,4.60131,2470.763,2024-5-06T16:38:03Z
2024-05-06T14:38:24Z,42.805,6.029,13.3036,4.60132,2470.787,2024-5-06T16:41:06Z
2024-05-06T14:41:27Z,42.805,6.029,13.3039,4.60132,2470.787,2024-5-06T16:44:09Z
2024-05-06T14:44:31Z,42.805,6.029,13.3040,4.60131,2470.763,2024-5-06T16:47:12Z
2024-05-06T14:47:34Z,42.805,6.029,13.3039,4.60132,2470.763,2024-5-06T16:50:16Z
2024-05-06T14:50:37Z,42.805,6.029,13.3038,4.60130,2470.833,2024-5-06T16:53:19Z
2024-05-06T14:53:40Z,42.805,6.029,13.3041,4.60132,2470.787,2024-5-06T16:56:22Z
2024-05-06T14:56:43Z,42.805,6.029,13.3044,4.60131,2470.787,2024-5-06T16:59:25Z
2024-05-06T14:59:46Z,42.805,6.029,13.3039,4.60131,2470.81,2024-5-06T17:02:28Z
2024-05-06T15:02:49Z,42.805,6.029,13.3042,4.60130,2470.787,2024-5-06T17:05:31Z
2024-05-06T15:05:52Z,42.805,6.029,13.3041,4.60132,2470.787,2024-5-06T17:08:34Z
2024-05-06T15:08:55Z,42.805,6.029,13.3041,4.60130,2470.81,2024-5-06T17:11:37Z
2024-05-06T15:11:58Z,42.805,6.029,13.3039,4.60131,2470.824,2024-5-06T17:14:40Z
2024-05-06T15:15:01Z,42.805,6.029,13.3043,4.60132,2470.81,2024-5-06T17:17:43Z